Regional Weather Roundup
Issued by NWS Sterling, VA

Home | Current Version | Previous Version | Text Only | Print | Product List | Glossary On
Versions: 1 2 3 4 5 6 7 8 9 10 11 12 13 14 15 16 17 18 19 20 21 22 23 24 25 26 27
000
ASUS41 KLWX 240711
RWRLWX

REGIONAL WEATHER ROUNDUP
NATIONAL WEATHER SERVICE BALTIMORE MD/WASHINGTON DC
300 AM EDT THU AUG 24 2017

Note: "FAIR" indicates few or no clouds below 12,000 feet
with no significant weather and/or obstructions to visibility.
 TC=TEMPERATURE CELSIUS

 * =Non NWS site. Station does not report precipitation (e.g. rain,
    snow, etc.), thunder, or fog.

DCZ001-MDZ009-015-VAZ040>042-051-053>054-240800-
WASHINGTON METRO

CITY           SKY/WX    TMP DP  RH WIND       PRES   REMARKS
WASHINGTON NAT MOCLDY    73  61  65 N7        29.91F
DULLES         PTCLDY    61  59  93 CALM      29.92F
ANDREWS AFB    MOCLDY    64  60  90 CALM      29.90S
FT BELVOIR     CLOUDY    64  63  95 CALM      29.91S
QUANTICO       CLOUDY    69  65  86 NW3       29.91S
COLLEGE PARK*  CLOUDY    65  62  91 CALM      29.90F
LEESBURG*      CLEAR     64  61  88 CALM      29.94S
MANASSAS*      CLOUDY    65  60  84 N3        29.92F
GAITHERSBURG*  CLEAR     60  59  96 CALM      29.94S

$$

MDZ006>007-011-014-240800-
BALTIMORE METRO

CITY           SKY/WX    TMP DP  RH WIND       PRES   REMARKS
BWI AIRPORT    PTCLDY    62  61  96 W3        29.90S
MD SCIENCE CTR   N/A     73  55  53 MISG      29.91S
MARTIN STATE   CLEAR     64  63  94 CALM      29.91F
ANNAPOLIS      CLEAR     73  71  93 NW3       29.89S
FORT MEADE*    PTCLDY    61  59  94 CALM      29.93S

$$

MDZ012-015-019>023-240800-
MARYLAND EASTERN SHORE

CITY           SKY/WX    TMP DP  RH WIND       PRES   REMARKS
OCEAN CITY     CLEAR     67  67 100 NW5       29.88S
SALISBURY      CLEAR     66  65  96 N3        29.87F
BAY BRIDGE AP* CLEAR     70  59  68 N3        29.89F
CAMBRIDGE*     CLEAR     64  64 100 CALM      29.88S
EASTON*        CLEAR    N/A N/A N/A NE3       29.93S

$$

MDZ017>025-240800-
SOUTHERN MARYLAND

CITY           SKY/WX    TMP DP  RH WIND       PRES   REMARKS
PATUXENT RIVER CLEAR     67  67 100 NW6       29.88S
ST INIGOES     CLEAR     66  65  96 CALM      29.88S
LEONARDTOWN*   NOT AVBL

$$

MDZ003>005-240800-
NORTH CENTRAL MARYLAND

CITY           SKY/WX    TMP DP  RH WIND       PRES   REMARKS
FREDERICK*     PTCLDY    61  61 100 CALM      29.95F
HAGERSTOWN APT CLEAR     64  57  78 CALM      29.94F
WESTMINSTER*   CLEAR     63  59  88 CALM      29.93F

$$

MDZ501>502-240800-
WESTERN MARYLAND

CITY           SKY/WX    TMP DP  RH WIND       PRES   REMARKS
OAKLAND*       CLEAR     55  46  71 CALM      30.01F
CUMBERLAND*    CLEAR     57  57 100 N3        30.02S

$$

VAZ025>031-240800-
SHENANDOAH VALLEY

CITY           SKY/WX    TMP DP  RH WIND       PRES   REMARKS
WINCHESTER*    CLEAR     61  54  77 NW6       29.95S
FRONT ROYAL*   MOCLDY    64  61  88 CALM      29.94S
LURAY*         CLOUDY    68  61  77 CALM      29.96S
NEW MARKET*    CLOUDY    62  59  89 CALM      29.96S
STAUNTON*      CLOUDY    64  58  79 CALM      29.98F
WAYNESBORO*    CLEAR     60  59  97 CALM      29.98F

$$

WVZ021-048>050-054>055-240800-
EASTERN WEST VIRGINIA PANHANDLE

CITY           SKY/WX    TMP DP  RH WIND       PRES   REMARKS
MARTINSBURG    PTCLDY    60  57  89 CALM      29.93F
PETERSBURG*    PTCLDY    59  58  97 CALM      29.99F

$$

VAZ036>039-050-240800-
CENTRAL FOOTHILLS

CITY           SKY/WX    TMP DP  RH WIND       PRES   REMARKS
CHARLOTTESVILL CLOUDY    68  65  90 W6        29.93F
CULPEPER*      CLOUDY    65  63  91 N5        29.94R
ORANGE*        CLOUDY    68  63  83 CALM      29.92F
GORDONSVILLE*  CLOUDY    68  65  91 CALM      29.92S
WARRENTON*     CLOUDY    63  60  87 CALM      29.92S

$$

VAZ055>057-240800-
NORTH AND CENTRAL PIEDMONT

CITY           SKY/WX    TMP DP  RH WIND       PRES   REMARKS
FREDERICKSBRG* CLOUDY    68  68 100 CALM      29.90R
STAFFORD*      MOCLDY    65  65  97 N5        29.95R

$$

NCZ024-NYZ072-PAZ021-071-VAZ022-071-240800-
OTHER REGIONAL OBSERVATIONS

CITY           SKY/WX    TMP DP  RH WIND       PRES   REMARKS
NEW YORK CITY  CLEAR     68  54  60 CALM      29.90S
PHILADELPHIA   PTCLDY    68  56  65 NW3       29.89S
PITTSBURGH     CLOUDY    63  58  83 CALM      29.99S
ROANOKE        MOCLDY    68  59  73 W3        29.98F
RICHMOND       CLOUDY    68  67  96 NW6       29.90R
RALEIGH        MOCLDY    74  73  97 CALM      29.90S

$$

ANZ530>537-240800-
MARINE OBSERVATIONS

STATION/POSITION TIME  TEMP    WIND        PRES
                       AIR SEA DIR/SP/G
                 (UTC) (F)     (DEG/KT/KT) (MB)
THOMAS PT LIGHT  0700   75 81  350/  8/  8   N/A
BALT KEY BRIDGE  0636   74     340/  9/ 10 1012.1F
COVE POINT       0636   76      70/ 10/ 11 1012.6S
LEWISETTA        0636   77 81   40/  5/  8 1011.4F
SOLOMONS ISLAND  0636   72 81  340/  5/  6   N/A
PINEY POINT      0636           30/  7/  8   N/A

$$





USA.gov is the U.S. government's official web portal to all federal, state and local government web resources and services.